TEVEL2-1

Last updated on Sun Aug 09 2026 00:03:16 GMT+0000 (Coordinated Universal Time)

1 63217U 25052H 26220.27446690 .00008483 00000+0 24796-3 0 9996 2 63217 97.3804 116.2751 0001231 3.5026 356.6226 15.35531963 78082
UTC large
Height (km)
Speed (km/s)
/
Latitude / Longitude
Inclination (degrees)
Orbital Period (minutes)
Azimuth
Elevation
Range (km)
Doppler Factor

Next 0 passes for location: London (51.5072 / 0.1276)

No passes found over London.
TEVEL2-1